Retour au catalogue

STARLINK-35137

ActifCommunicationsVLEO
NORAD 65686·PAYLOAD·🇺🇸 United States

Lancé Sep 21, 2025 depuis Cape Canaveral Space Force Station

Loading…

Prochains Passages (prochaines 24 heures)

TLE

FraisSource: CelesTrak SupGP

Époque: Sep 15, 2026, 03:27 UTC

1 65686C 25212L   26258.14423611 -.00023820  00000+0 -70379-3 0  2581
2 65686  53.1568 172.4556 0001334  97.3599 330.9537 15.34401222    19

Suivez STARLINK-35137 en temps réel avec AllMySat

Download on the App Store